Redding, CA

6:13 AM PDT on May 25, 2018 (GMT -0700)
Redding Municipal

Weather History for KRDD - August, 2013

Change the Weather History Date:

Monday, August 26, 2013

  Actual Average Record
Temperature  
Mean Temperature 76 °F -  
Max Temperature 88 °F 95 °F 109 °F (1988)
Min Temperature 63 °F 61 °F 53 °F (1995)
Degree Days  
Heating Degree Days 0    
Cooling Degree Days 11    
Growing Degree Days 26 (Base 50)    
Moisture  
Dew Point 46 °F    
Average Humidity 38    
Maximum Humidity 56    
Minimum Humidity 20    
Precipitation  
Precipitation 0.00 in 0.01 in 0.08 in (1990)
Month to date precipitation T 0.14  
Year to date precipitation 9.30 21.09  
Since 1 July precipitation T  
Sea Level Pressure  
Sea Level Pressure 29.90 in    
Wind  
Wind Speed 2 mph (SSE)    
Max Wind Speed 13 mph    
Max Gust Speed 18 mph    
Visibility 10 miles    
Events      
T = Trace of Precipitation, MM = Missing Value Source: NWS Daily Summary

Daily Weather History Graph

Daily Weather History Graph

Search for Another Location

Airport or City:

Astronomy

Aug. 26, 2013 Rise Set
Actual Time 6:30 AM PDT 7:50 PM PDT
Civil Twilight 6:02 AM PDT 8:18 PM PDT
Nautical Twilight 5:28 AM PDT 8:52 PM PDT
Astronomical Twilight 4:52 AM PDT 9:27 PM PDT
Moon 11:02 PM PDT (8/26) 12:39 PM PDT (8/26)
Length of Visible Light 14h 15m
Length of Day
13h 19m
Waning Gibbous, 65% of the Moon is Illuminated
Aug 26
Waning Gibbous
Aug 28
Last Quarter
Sep 5
New
Sep 12
First Quarter
Sep 19
Full

Hourly Weather History & Observations

Time (PDT) Temp. Dew Point Humidity Pressure Visibility Wind Dir Wind Speed Gust Speed Precip Events Conditions
12:53 AM 70.0 °F 48.0 °F 46% 29.86 in 10.0 mi WSW 3.5 mph - N/A   Clear
1:53 AM 68.0 °F 48.9 °F 50% 29.86 in 10.0 mi NNE 3.5 mph - N/A   Partly Cloudy
2:53 AM 68.0 °F 48.9 °F 50% 29.88 in 10.0 mi Calm Calm - N/A   Mostly Cloudy
3:53 AM 66.9 °F 50.0 °F 54% 29.90 in 10.0 mi Calm Calm - N/A   Scattered Clouds
4:53 AM 66.0 °F 50.0 °F 56% 29.91 in 10.0 mi Calm Calm - N/A   Overcast
5:53 AM 66.9 °F 48.9 °F 52% 29.92 in 10.0 mi Calm Calm - N/A   Overcast
6:53 AM 64.0 °F 48.9 °F 58% 29.94 in 10.0 mi SSE 3.5 mph - N/A   Clear
7:53 AM 66.0 °F 50.0 °F 56% 29.96 in 10.0 mi Calm Calm - N/A   Clear
8:53 AM 70.0 °F 51.1 °F 51% 29.97 in 10.0 mi Calm Calm - N/A   Clear
9:53 AM 72.0 °F 51.1 °F 48% 29.97 in 10.0 mi Calm Calm - N/A   Clear
10:53 AM 75.0 °F 50.0 °F 41% 29.96 in 10.0 mi Calm Calm - N/A   Clear
11:53 AM 77.0 °F 50.0 °F 39% 29.95 in 10.0 mi SE 4.6 mph - N/A   Clear
12:53 PM 80.1 °F 48.9 °F 34% 29.94 in 10.0 mi Calm Calm - N/A   Clear
1:53 PM 82.9 °F 46.0 °F 27% 29.91 in 10.0 mi South 3.5 mph - N/A   Clear
2:53 PM 87.1 °F 43.0 °F 21% 29.89 in 10.0 mi South 10.4 mph 16.1 mph N/A   Clear
3:53 PM 87.1 °F 43.0 °F 21% 29.87 in 10.0 mi South 9.2 mph - N/A   Clear
4:53 PM 87.1 °F 41.0 °F 20% 29.86 in 10.0 mi Calm Calm - N/A   Clear
5:53 PM 87.1 °F 41.0 °F 20% 29.84 in 10.0 mi Variable 3.5 mph - N/A   Clear
6:53 PM 86.0 °F 39.9 °F 20% 29.83 in 10.0 mi SSE 4.6 mph - N/A   Clear
7:53 PM 81.0 °F 39.0 °F 22% 29.84 in 10.0 mi ESE 3.5 mph - N/A   Clear
8:53 PM 77.0 °F 37.9 °F 24% 29.85 in 10.0 mi Calm Calm - N/A   Clear
9:53 PM 75.9 °F 39.0 °F 26% 29.85 in 10.0 mi Calm Calm - N/A   Clear
10:53 PM 71.1 °F 39.0 °F 31% 29.86 in 10.0 mi North 3.5 mph - N/A   Clear
11:53 PM 66.9 °F 41.0 °F 39% 29.86 in 10.0 mi Calm Calm - N/A   Clear